Current Weather Network in the world 
cooperate with our weather  network
  
 
country list  
Weather now
02-04-20  8:45
Lodi (LO)  (Italy)  
4.1  C.     0 Km/h;

 

If you want to participate in our meteorological network, fill in form data, and send us an  e_mail and we will activate your weather station in your country. You would to send your weather reporting, one or more times a day, through our website .. for examples insert
       
manual meteorological reports today      
Weather reporting today :
Romania: stazione meteo: Amara
07:10
PAESE CITTA'DATAORAT C.(m)VENTO (Km/h)PAPREC.STATO
AustriaInnsbruck02-04-2006:20 UTC00.51 1015
AustriaLinz02-04-2006:20 UTC-20 N1015
AustriaVienna/Wien02-04-2006:20 UTC01.54 SSE1016
AustriaSalisburgo/Salzsbu02-04-2006:20 UTC12.06 SSE1014
Belarus/BielorussiaMinsk02-04-2006:00 UTC27 WSW1005
Belarus/BielorussiaRiga02-04-2006:20 UTC55.14 SW997
BulgariaSofia02-04-2006:30 UTC01.54 NE1015
Belgium/BelgioBruxelles02-04-2006:20 UTC12.06 SW1016
Croatia/CroaziaZagabria/Zagreb02-04-2006:00 UTC-31.03 1017
Croatia/CroaziaDubrovnik02-04-2006:00 UTC55.66 1014
Croatia/CroaziaSpalato/Split02-04-2006:00 UTC71.03 1015
Croatia/CroaziaPula02-04-2006:00 UTC54.12 NE1015
Croatia/CroaziaZara/Zadar02-04-2006:00 UTC21.54 SE1015
Croazia/CroatiaFiume/Rijeka02-04-2006:00 UTC63.09 NNE1015
Czech RepublicPraga02-04-2006:00 UTC-12.57 SW1014
SlovakiaBratislava02-04-2006:30 UTC03.09 NE1017
BosniaSarajevo02-04-2006:00 UTC-31.03 1016
Denmark/DanimarcaAlborg02-04-2006:20 UTC69.26 W1001
Denmark/DanimarcaEsbjerg02-04-2006:20 UTC78.23 WSW1007
Denmark/DanimarcaCopenaghen/Koeben.02-04-2006:20 UTC67.72 WSW1005
Finland/FinlandiaHelsinky02-04-2015:50 UTC-23.09 NE1021
Finland/FinlandiaOulu02-04-2006:20 UTC-81.54 SE987
France/FranciaParigi/Paris02-04-2006:00 UTC03.6 NNW1017
France/FranciaNizza/Nices02-04-2006:00 UTC64.12 NNW1015
France/FranciaTrasburgo02-04-2006:00 UTC-10.51 W1015
France/FranciaMontepellier02-04-2006:00 UTC51.54 N1014
France/FranciaLione/Lyon02-04-2006:00 UTC31.03 SSE1014
France/FranciaLilla02-04-2006:00 UTC31.03 SW1016
France/FranciaBrest02-04-2006:00 UTC51.03 N1019
France/FranciaBordeaux02-04-2006:00 UTC50.51 ESE1014
France/FranciaMarsiglia/Marsei02-04-2006:00 UTC51.54 1014
Germany/GermaniaAmburgo-fink02-04-2006:20 UTC54.12 SW1012
Germany/GermaniaAmburgo-fuhl02-04-2006:20 UTC54.63 SW1011
Germany/GermaniaBerlin-sch02-04-2006:20 UTC44.12 WSW1013
Germany/GermaniaBerlino-tegel02-04-2006:20 UTC54.63 W1012
Germany/GermaniaMonaco02-04-2006:20 UTC-30.51 1014
Germany/GermaniaNonimberga02-04-2006:20 UTC-11.54 ESE1014
Germany/GermaniaFrancoforte02-04-2006:20 UTC01.03 S1015
Germany/GermaniaStoccarda02-04-2006:20 UTC01.03 1014
Germany/GermaniaHannover02-04-2006:20 UTC52.57 WSW1014
Germany/GermaniaDusseldorf02-04-2006:20 UTC11.03 1015
ISReykjavik02-04-2006:00 UTC-26.17 N1013
Netherlands/Paesi baAmsterdam02-04-2006:25 UTC65.14 WSW1014
Netherlands/Paesi BaRotterdam02-04-2006:25 UTC64.12 WSW1015
Netherlands/Paesi BaGroninga/Groningen02-04-2006:25 UTC43.6 SW1013
Netherlands/Paesi baMaastrich02-04-2006:25 UTC03.09 SW1016
Norway-NorvegiaOslo02-04-2006:20 UTC36.69 SSW986
Norway-NorvegiaTrondheim02-04-2005:50 UTC35.14 SSE978
Norway-NorvegiaBergen02-04-2006:20 UTC47.2 W986
Norway-NorvegiaBodo02-04-2006:20 UTC-112.35 E976
Poland/PoloniaVarsavia/Warsawa02-04-2006:00 UTC33.09 WSW1011
Portugal-PortogalloLisbona/Lisboa02-04-2006:00 UTC71.54 WNW1012
Portugal-PortogalloFaro-airport02-04-2006:00 UTC93.6 W1011
Portugal-PortogalloPorto Santo02-04-2006:00 UTC141.03 1018
Portugal-PortogalloPorto/Pedras Rubra02-04-2006:00 UTC41.03 NNE1013
RUSMosca02-04-2006:00 UTC26 WSW1002
Russian-RussiaSt.Peterburg02-04-2006:00 UTC02 S994
RusVladivostok02-04-2006:00 UTC153 SSW1009
RomaniaBucarest02-04-2006:00 UTC63.09 N1018
Spain/SpagnaMadrid/Barajas02-04-2006:00 UTC11.03 1011
Spain/SpagnaMadrid/Cuatro02-04-2006:00 UTC41.54 N1011
Spain/SpagnaBarcellona02-04-2006:00 UTC116.69 NNE1011
Spain/SpagnaLa Couruna02-04-2006:00 UTC112.06 N1016
Spain/SpagnaAlmeria02-04-2006:00 UTC112.57 NNW1010
Spain/SpagnaValencia02-04-2006:00 UTC121.03 S1011
SpainIbiza02-04-2006:00 UTC124.63 NW1009pioggia
Sweden-SveziaStockholm/Stoccolm02-04-2006:20 UTC56.17 WSW991
Sweden-SveziaGoteborg02-04-2010:20 UTC-20 N1012
Sweden-SveziaMalmo02-04-2006:20 UTC58.75 W1004
Sweden-SveziaKiruna02-04-2006:20 UTC-102.06 E983neve debole
Sweden-SveziaSundsvall02-04-2006:20 UTC20.51 985
Sweden-SveziaJongkoping02-04-2006:20 UTC47.72 WSW996
Sweden-SveziaJongkoping02-04-2006:20 UTC47.72 WSW996
Sweden-SveziaJongkoping02-04-2006:20 UTC47.72 WSW996
Sweden-SveziaJongkoping02-04-2006:20 UTC47.72 WSW996
Sweden-SveziaJongkoping02-04-2006:20 UTC47.72 WSW996
Sweden-SveziaJongkoping02-04-2006:20 UTC47.72 WSW996
Ukraine/UcrainaLvov/l'viv02-04-2006:00 UTC12 SW1015
Ukraine/UcrainaKijev02-04-2006:00 UTC35 WSW1014
United KingdomBelfast-airport02-04-2006:20 UTC86.17 WSW1014pioggia
United KingdomBirmingham02-04-2006:20 UTC72.57 W1016
United KingdomEdimburgo/Edimburg02-04-2006:20 UTC98.23 WSW1007
United KingdomLeeds02-04-2014:50 UTC76.69 W1020
United KingdomLiverpool02-04-2006:20 UTC96.69 WNW1015
United KingdomBristol02-04-2006:20 UTC64.12 W1018
United KingdomPlymouth02-04-2015:20 UTC66.17 NW1018
GBLondra02-04-2006:20 UTC72.57 W1017
UngheriaBudapest02-04-2006:00 UTC00.51 1018
United KingdomManchester-airport02-04-2006:20 UTC74.63 WSW1015
yugoslaviaBelgrado/Beograd02-04-2006:00 UTC01.03 1019
02-04-2006:20 UTC22.06 ENE1014
 

 .

. .
. . . .

informazioni e contatti

www.meteorete.it
by.A.Santagostini C.2001-2016
P.I.05250380960

Partecipa alla rete meteorologica

  
 Cerca Meteo  
Stazioni meteo AM
Satellite e Radar
Rete in GooGle Maps
stazioni meteorete
Schermo solare Meteorete e Davis
stazioni automatiche
stazioni AM
rete internazionale
stazioni estere
archivio articoli
citta fredde

i nostri amici
negozio meteorete
dati storici stazioni
clima e riscaldamento globale
progetto meteo nelle scuole
temperatura Media in Italia 1951-2000
galleria di immagini
noleggio webcam
servizi meteo gratuiti
meteorologia per le scuole elementari